Tracking 18980 objects as of 19-Feb-2018
HD Live streaming from Space Station
objects crossing your sky now

FENGYUN 1C DEB

Track FENGYUN 1C DEB now!
10-day predictions


NORAD ID: 33665
Int'l Code: 1999-025DFA
Perigee: 564.4 km
Apogee: 1,319.4 km
Inclination: 98.7 °
Period: 103.7 minutes
Semi major axis: 7312 km
RCS: 0.0143 m2 (small)
Launch date: May 10, 1999
Source: People's Republic of China (PRC)
Launch site: Taiyaun Space Center, China (TSC)

Note: This is SATELLITE DEBRIS
aabbcc
Your satellite tracking list
Your tracking list is empty




NASA's NSSDC Master Catalog

Two Line Element Set (TLE):
1 33665U 99025DFA 18049.29956032  .00000312  00000-0  10320-3 0  9991
2 33665  98.7290 240.4956 0516217  26.5688 336.0966 13.88258616529723
Source of the keplerian elements: AFSPC